Zurück zum Katalog

CZ-6A DEB

AktivPO
NORAD 54311·DEBRIS·🇨🇳 China

Gestartet Nov 11, 2022 von Taiyuan Satellite Launch Center

Loading…

Nächste Überflüge (nächste 24 Stunden)

TLE

AktuellSource: Space-Track

Epoche: Sep 14, 2026, 04:53 UTC

1 54311U 22151BE  26257.20390243  .00011508  00000-0  13048-2 0  9993
2 54311  98.6150 339.7566 0053928 321.9179  37.8227 14.85484137203697

Verfolge CZ-6A DEB in Echtzeit mit AllMySat

Download on the App Store